When you browse on this site, cookies collect data to enhance your experience and personalize the content and advertising you see.
Visit our Privacy Policy to learn more. By continuing to use the site, you agree to this use of cookies and data.
  • In Portugal
  • List of Countries
  • For 7 days
  • Water Temperature
  • Satellite Maps
  • Weather Map
  • Weather Widgets
  • user-avatar
    Login

    Hourly Weather Polule

    Today, 16 January, Wednesday

    Time Temperature Precipitation Wind Pressure Humidity
    00:00 -5°C° 0.3 mm 3 mps 730 mmHg 92%
    01:00 -4°C° 0.3 mm 2 mps 730 mmHg 94%
    02:00 -3°C° 0 mm 1 mps 730 mmHg 96%
    03:00 -5°C° 0.1 mm 2 mps 731 mmHg 96%
    04:00 -5°C° 0.1 mm 2 mps 731 mmHg 96%
    05:00 -6°C° 0.1 mm 2 mps 732 mmHg 95%
    06:00 -5°C° 0 mm 2 mps 733 mmHg 95%
    07:00 -5°C° 0 mm 2 mps 734 mmHg 95%
    08:00 -5°C° 0 mm 2 mps 735 mmHg 95%
    09:00 -5°C° 0 mm 2 mps 735 mmHg 95%
    10:00 -4°C° 0 mm 2 mps 736 mmHg 94%
    11:00 -4°C° 0 mm 2 mps 736 mmHg 94%
    12:00 -3°C° 0 mm 2 mps 736 mmHg 93%
    13:00 -3°C° 0 mm 2 mps 736 mmHg 92%
    14:00 -2°C° 0 mm 2 mps 736 mmHg 91%
    15:00 -2°C° 0 mm 3 mps 736 mmHg 92%
    16:00 -4°C° 0 mm 3 mps 736 mmHg 93%
    17:00 -4°C° 0 mm 3 mps 736 mmHg 94%
    18:00 -3°C° 0.2 mm 4 mps 736 mmHg 94%
    19:00 -2°C° 0.2 mm 4 mps 735 mmHg 95%
    20:00 -1°C° 0.2 mm 5 mps 735 mmHg 96%
    21:00 -1°C° 0.1 mm 5 mps 735 mmHg 96%
    22:00 -1°C° 0.1 mm 5 mps 735 mmHg 96%
    23:00 0°C° 0.1 mm 5 mps 735 mmHg 96%

    Tomorrow, 17 January, Thursday

    Time Temperature Precipitation Wind Pressure Humidity
    00:00 -1°C° 0.1 mm 6 mps 734 mmHg 97%
    01:00 -1°C° 0.1 mm 6 mps 734 mmHg 97%
    02:00 -1°C° 0.1 mm 6 mps 734 mmHg 97%
    03:00 -1°C° 0.2 mm 6 mps 733 mmHg 97%
    04:00 -1°C° 0.2 mm 7 mps 733 mmHg 96%
    05:00 -1°C° 0.2 mm 7 mps 732 mmHg 95%
    06:00 -1°C° 0.2 mm 7 mps 732 mmHg 94%
    07:00 -2°C° 0.2 mm 7 mps 731 mmHg 92%
    08:00 -2°C° 0.2 mm 8 mps 731 mmHg 91%
    09:00 -2°C° 0.1 mm 8 mps 730 mmHg 89%
    10:00 -2°C° 0.1 mm 8 mps 730 mmHg 88%
    11:00 -3°C° 0.1 mm 9 mps 730 mmHg 86%
    12:00 -2°C° 0.1 mm 8 mps 730 mmHg 87%
    13:00 -1°C° 0.1 mm 8 mps 730 mmHg 88%
    14:00 -1°C° 0.1 mm 8 mps 730 mmHg 89%
    15:00 -1°C° 0 mm 7 mps 730 mmHg 88%
    16:00 -1°C° 0 mm 7 mps 730 mmHg 86%
    17:00 -1°C° 0 mm 7 mps 730 mmHg 85%
    18:00 -1°C° 0 mm 7 mps 731 mmHg 85%
    19:00 -1°C° 0 mm 7 mps 731 mmHg 84%
    20:00 -1°C° 0 mm 7 mps 731 mmHg 84%
    21:00 -2°C° 0 mm 7 mps 731 mmHg 85%
    22:00 -2°C° 0 mm 7 mps 731 mmHg 86%
    23:00 -2°C° 0 mm 7 mps 731 mmHg 87%

    Day after tomorrow, 18 January, Friday

    Time Temperature Precipitation Wind Pressure Humidity
    00:00 -2°C° 0.5 mm 6 mps 731 mmHg 89%
    01:00 -1°C° 0.5 mm 5 mps 731 mmHg 91%
    02:00 -1°C° 0.5 mm 4 mps 731 mmHg 93%
    03:00 -2°C° 0.1 mm 5 mps 731 mmHg 89%
    04:00 -2°C° 0.1 mm 5 mps 730 mmHg 85%
    05:00 -4°C° 0.1 mm 6 mps 730 mmHg 82%
    06:00 -4°C° 0.4 mm 6 mps 731 mmHg 85%
    07:00 -6°C° 0.4 mm 7 mps 731 mmHg 87%
    08:00 -6°C° 0.4 mm 7 mps 731 mmHg 90%
    09:00 -6°C° 0.5 mm 7 mps 732 mmHg 89%
    10:00 -6°C° 0.5 mm 7 mps 733 mmHg 88%
    11:00 -5°C° 0.5 mm 8 mps 734 mmHg 88%
    12:00 -6°C° 0 mm 7 mps 735 mmHg 86%
    13:00 -5°C° 0 mm 6 mps 736 mmHg 84%
    14:00 -5°C° 0 mm 5 mps 737 mmHg 83%
    15:00 -5°C° 0.1 mm 5 mps 739 mmHg 82%
    16:00 -6°C° 0.1 mm 5 mps 740 mmHg 81%
    17:00 -6°C° 0.1 mm 5 mps 741 mmHg 81%
    18:00 -6°C° 0 mm 5 mps 742 mmHg 83%
    19:00 -5°C° 0 mm 4 mps 742 mmHg 85%
    20:00 -7°C° 0 mm 4 mps 743 mmHg 87%
    21:00 -7°C° 0 mm 4 mps 743 mmHg 86%
    22:00 -7°C° 0 mm 5 mps 744 mmHg 86%
    23:00 -7°C° 0 mm 5 mps 745 mmHg 86%

    19 January, Saturday

    Time Temperature Precipitation Wind Pressure Humidity
    00:00 -7°C° 0 mm 5 mps 745 mmHg 86%
    01:00 -8°C° 0 mm 4 mps 746 mmHg 86%
    02:00 -8°C° 0 mm 4 mps 746 mmHg 86%
    03:00 -8°C° 0 mm 4 mps 746 mmHg 88%
    04:00 -8°C° 0 mm 4 mps 746 mmHg 89%
    05:00 -8°C° 0 mm 4 mps 746 mmHg 90%
    06:00 -8°C° 0.2 mm 4 mps 746 mmHg 91%
    07:00 -7°C° 0.2 mm 4 mps 746 mmHg 92%
    08:00 -7°C° 0.2 mm 4 mps 746 mmHg 93%
    09:00 -6°C° 0.3 mm 5 mps 746 mmHg 92%
    10:00 -5°C° 0.3 mm 5 mps 746 mmHg 90%
    11:00 -4°C° 0.3 mm 6 mps 746 mmHg 89%
    12:00 -4°C° 0 mm 5 mps 746 mmHg 89%
    13:00 -4°C° 0 mm 5 mps 747 mmHg 89%
    14:00 -3°C° 0 mm 4 mps 747 mmHg 89%
    15:00 -3°C° 0 mm 4 mps 747 mmHg 90%
    16:00 -4°C° 0 mm 4 mps 746 mmHg 91%
    17:00 -5°C° 0 mm 3 mps 746 mmHg 92%
    18:00 -5°C° 0 mm 3 mps 746 mmHg 93%
    19:00 -6°C° 0 mm 3 mps 746 mmHg 93%
    20:00 -7°C° 0 mm 4 mps 746 mmHg 94%
    21:00 -7°C° 0 mm 4 mps 747 mmHg 94%
    22:00 -8°C° 0 mm 4 mps 747 mmHg 94%
    23:00 -8°C° 0 mm 4 mps 747 mmHg 94%

    20 January, Sunday

    Time Temperature Precipitation Wind Pressure Humidity
    00:00 -8°C° 0 mm 4 mps 747 mmHg 95%
    01:00 -8°C° 0 mm 4 mps 747 mmHg 95%
    02:00 -7°C° 0 mm 3 mps 747 mmHg 95%
    03:00 -6°C° 0.2 mm 3 mps 746 mmHg 95%
    04:00 -6°C° 0.2 mm 3 mps 746 mmHg 95%
    05:00 -5°C° 0.2 mm 3 mps 746 mmHg 95%
    06:00 -4°C° 0.2 mm 2 mps 746 mmHg 96%
    07:00 -4°C° 0.2 mm 2 mps 746 mmHg 96%
    08:00 -4°C° 0.2 mm 2 mps 746 mmHg 96%
    09:00 -4°C° 0.1 mm 2 mps 746 mmHg 96%
    10:00 -3°C° 0.1 mm 2 mps 746 mmHg 96%
    11:00 -3°C° 0.1 mm 2 mps 746 mmHg 96%
    12:00 -3°C° 0.2 mm 2 mps 746 mmHg 92%
    13:00 -2°C° 0.2 mm 2 mps 745 mmHg 88%
    14:00 -2°C° 0.2 mm 3 mps 745 mmHg 84%
    15:00 -4°C° 0.1 mm 3 mps 745 mmHg 85%
    16:00 -4°C° 0.1 mm 3 mps 745 mmHg 87%
    17:00 -5°C° 0.1 mm 3 mps 746 mmHg 88%
    18:00 -6°C° 0 mm 3 mps 746 mmHg 89%
    19:00 -7°C° 0 mm 3 mps 747 mmHg 89%
    20:00 -8°C° 0 mm 3 mps 747 mmHg 90%
    21:00 -8°C° 0 mm 3 mps 748 mmHg 90%
    22:00 -8°C° 0 mm 3 mps 748 mmHg 90%
    23:00 -9°C° 0 mm 3 mps 749 mmHg 91%

    21 January, Monday

    Time Temperature Precipitation Wind Pressure Humidity
    00:00 -9°C° 0 mm 3 mps 749 mmHg 91%
    01:00 -9°C° 0 mm 3 mps 750 mmHg 91%
    02:00 -9°C° 0 mm 3 mps 750 mmHg 91%
    03:00 -9°C° 0 mm 3 mps 750 mmHg 92%
    04:00 -9°C° 0 mm 3 mps 750 mmHg 93%
    05:00 -9°C° 0 mm 3 mps 751 mmHg 94%
    06:00 -10°C° 0 mm 3 mps 751 mmHg 93%
    07:00 -10°C° 0 mm 3 mps 751 mmHg 93%
    08:00 -10°C° 0 mm 3 mps 752 mmHg 93%
    09:00 -9°C° 0 mm 3 mps 752 mmHg 91%
    10:00 -8°C° 0 mm 3 mps 753 mmHg 89%
    11:00 -8°C° 0 mm 3 mps 753 mmHg 87%
    12:00 -7°C° 0 mm 3 mps 753 mmHg 87%
    13:00 -6°C° 0 mm 3 mps 754 mmHg 87%
    14:00 -6°C° 0 mm 3 mps 754 mmHg 87%
    15:00 -6°C° 0 mm 3 mps 754 mmHg 88%
    16:00 -6°C° 0 mm 2 mps 754 mmHg 90%
    17:00 -7°C° 0 mm 2 mps 754 mmHg 92%
    18:00 -7°C° 0 mm 2 mps 754 mmHg 91%
    19:00 -7°C° 0 mm 2 mps 754 mmHg 90%
    20:00 -7°C° 0 mm 2 mps 754 mmHg 89%
    21:00 -8°C° 0 mm 3 mps 754 mmHg 89%
    22:00 -8°C° 0 mm 3 mps 754 mmHg 89%
    23:00 -8°C° 0 mm 3 mps 754 mmHg 88%
    Show more